Albany, NY

5:04 PM EST on November 11, 2019 (GMT -0500)
Albany International

Weather History for KALB - October, 2019

Change the Weather History Date:

Monday, October 21, 2019

  Actual Average Record
Temperature  
Mean Temperature 52 °F 48 °F  
Max Temperature 60 °F 58 °F 81 °F (1979)
Min Temperature 43 °F 38 °F 17 °F (1972)
Degree Days  
Heating Degree Days 14 17  
Month to date heating degree days 251 289  
Since 1 July heating degree days 328 456  
Cooling Degree Days 0 0  
Month to date cooling degree days 4 0  
Year to date cooling degree days 771 594  
Growing Degree Days 2 (Base 50)    
Moisture  
Dew Point 45 °F    
Average Humidity 86    
Maximum Humidity 93    
Minimum Humidity 67    
Precipitation  
Precipitation T in 0.12 in 2.65 in (1995)
Month to date precipitation 5.38 2.54  
Year to date precipitation 36.59 31.99  
Snow  
Snow 0.00 in 0.00 in 0.20 in (1926)
Month to date snowfall 0.0 0.2  
Since 1 July snowfall 0.0 0.2  
Since 1 September snowfall 0.0 0.2  
Snow Depth 0.00 in    
Sea Level Pressure  
Sea Level Pressure 30.13 in    
Wind  
Wind Speed 3 mph ()    
Max Wind Speed 7 mph    
Max Gust Speed 10 mph    
Visibility 3.9 miles    
Events Fog    
T = Trace of Precipitation, MM = Missing Value Source: Averaged Metar Reports

Daily Weather History Graph

Daily Weather History Graph

Search for Another Location

Airport or City:

Astronomy

Oct. 21, 2019 Rise Set
Actual Time 7:15 AM EDT 6:03 PM EDT
Civil Twilight 6:46 AM EDT 6:32 PM EDT
Nautical Twilight 6:13 AM EDT 7:05 PM EDT
Astronomical Twilight 5:40 AM EDT 7:37 PM EDT
Moon No Moon Rise 2:36 PM EDT (10/21)
Length of Visible Light 11h 45m
Length of Day
10h 48m
Waning Gibbous, 48% of the Moon is Illuminated
Oct 21
Waning Gibbous
Oct 27
New
Nov 4
First Quarter
Nov 12
Full
Nov 19
Last Quarter

Hourly Weather History & Observations

Time (EDT) Temp. Windchill Dew Point Humidity Pressure Visibility Wind Dir Wind Speed Gust Speed Precip Events Conditions
12:24 AM 46.0 °F 43.1 °F 43.0 °F 89% 30.06 in 0.2 mi NNW 5.8 mph - N/A Fog Fog
12:51 AM 46.0 °F 43.1 °F 44.1 °F 93% 30.07 in 0.2 mi NNW 5.8 mph - N/A Fog Fog
1:51 AM 46.0 °F 44.8 °F 43.0 °F 89% 30.08 in 0.2 mi NNW 3.5 mph - N/A Fog Fog
2:51 AM 46.0 °F 44.8 °F 44.1 °F 93% 30.08 in 0.2 mi NNW 3.5 mph - N/A Fog Fog
3:51 AM 46.0 °F 43.9 °F 44.1 °F 93% 30.09 in 0.2 mi NNE 4.6 mph - N/A Fog Fog
4:51 AM 46.0 °F - 44.1 °F 93% 30.09 in 0.2 mi Calm Calm - N/A Fog Fog
5:51 AM 46.0 °F - 44.1 °F 93% 30.11 in 0.2 mi Calm Calm - N/A Fog Fog
6:10 AM 46.9 °F - 44.1 °F 90% 30.11 in 0.2 mi NNW 3.5 mph - N/A Fog Fog
6:51 AM 46.9 °F - 44.1 °F 90% 30.12 in 0.2 mi NNW 4.6 mph - N/A   Mist
6:58 AM 46.9 °F - 44.1 °F 90% 30.11 in 0.5 mi North 3.5 mph - N/A   Overcast
7:51 AM 46.9 °F - 45.0 °F 93% 30.13 in 0.5 mi North 5.8 mph - 0.00 in   Light Drizzle
8:23 AM 46.9 °F - 44.1 °F 90% 30.14 in 0.2 mi NNE 5.8 mph - 0.00 in Fog Light Drizzle
8:34 AM 46.9 °F - 44.1 °F 90% 30.14 in 0.2 mi NNE 5.8 mph - 0.00 in   Light Drizzle
8:37 AM 46.9 °F - 44.1 °F 90% 30.15 in 1.0 mi NNE 5.8 mph - 0.00 in   Light Drizzle
8:51 AM 46.9 °F - 44.1 °F 90% 30.16 in - NNE 4.6 mph - 0.00 in   Light Drizzle
8:58 AM 46.9 °F - 44.1 °F 90% 30.15 in 0.5 mi North 5.8 mph - 0.00 in   Light Drizzle
9:09 AM 46.9 °F - 44.1 °F 90% 30.14 in 0.2 mi NNE 5.8 mph - 0.00 in Fog Light Drizzle
9:17 AM 46.9 °F - 44.1 °F 90% 30.15 in 0.2 mi North 4.6 mph - 0.00 in   Overcast
9:46 AM 46.4 °F 44.3 °F 44.6 °F 93% 30.16 in 0.8 mi North 4.6 mph - 0.00 in   Overcast
9:51 AM 46.9 °F - 45.0 °F 93% 30.17 in 0.8 mi North 3.5 mph - 0.00 in Fog Patches of Fog
10:30 AM 48.9 °F - 45.0 °F 86% 30.17 in 2.0 mi WNW 3.5 mph - N/A   Overcast
10:51 AM 48.9 °F - 45.0 °F 86% 30.17 in 2.0 mi NNW 5.8 mph - N/A   Overcast
11:12 AM 50.0 °F - 45.0 °F 83% 30.16 in 3.0 mi North 5.8 mph - N/A   Overcast
11:51 AM 50.0 °F - 46.0 °F 86% 30.17 in 3.0 mi North 3.5 mph - N/A   Overcast
12:51 PM 51.1 °F - 45.0 °F 80% 30.17 in 6.0 mi North 5.8 mph - N/A   Overcast
1:51 PM 53.1 °F - 46.9 °F 80% 30.14 in 10.0 mi ENE 4.6 mph - N/A   Overcast
2:34 PM 55.0 °F - 46.9 °F 74% 30.12 in 10.0 mi Calm Calm - N/A   Scattered Clouds
2:51 PM 55.9 °F - 46.9 °F 72% 30.11 in 10.0 mi Calm Calm - N/A   Partly Cloudy
3:51 PM 57.9 °F - 48.0 °F 70% 30.12 in 10.0 mi Calm Calm - N/A   Partly Cloudy
4:51 PM 59.0 °F - 48.0 °F 67% 30.11 in 10.0 mi Variable 3.5 mph - N/A   Partly Cloudy
5:51 PM 57.0 °F - 46.9 °F 69% 30.12 in 10.0 mi Calm Calm - N/A   Partly Cloudy
6:51 PM 51.1 °F - 45.0 °F 80% 30.12 in 10.0 mi Calm Calm - N/A   Partly Cloudy
7:51 PM 48.9 °F - 45.0 °F 86% 30.14 in 10.0 mi Calm Calm - N/A   Partly Cloudy
8:51 PM 48.0 °F - 44.1 °F 86% 30.14 in 10.0 mi Calm Calm - N/A   Partly Cloudy
9:51 PM 46.0 °F - 43.0 °F 89% 30.15 in 8.0 mi Calm Calm - N/A   Partly Cloudy
10:51 PM 44.1 °F 42.5 °F 41.0 °F 89% 30.14 in 9.0 mi East 3.5 mph - N/A Fog Patches of Fog
11:51 PM 44.1 °F - 41.0 °F 89% 30.14 in 9.0 mi Calm Calm - N/A Fog Patches of Fog